Date String (YYYY-MM-DD hh:mm:ss) UTC,Instrument flags,Ambient pressure (hPa),Sample flow (lpm),Bypass flow (lpm),Sample temperature (°C),Ambient temperature (°C),ASC tube jacket temperature (°C),LED temperature (°C),Box temperature (°C),Sample RH (%),Span deviation,Mass concentration (μg/m³),Mass concentration (μg/m³),Mass concentration (μg/m³)
DateTimeUTC,F1_M11,P_M11,Q1_M11,Q2_M11,T1_M11,T2_M11,T3_M11,T4_M11,T5_M11,U1_M11,ZSPAN_M11,X0_M11,X2_M11,X1_M11
2023-01-21 21:00:00,,0825.3,5.00,0.00,21.8,21.1,00.0,30.6,23.5,14.2,0000.2,0010.50,0006.98,0006.66
2023-01-21 21:01:00,,0825.2,5.00,0.00,21.7,20.7,00.0,30.6,23.4,14.2,-000.2,0010.61,0007.04,0006.72
2023-01-21 21:02:00,,0825.2,4.99,0.00,21.7,20.4,00.0,30.6,23.4,14.2,-000.1,0010.77,0007.08,0006.76
2023-01-21 21:03:00,,0825.2,5.00,0.00,21.7,20.2,00.0,30.6,23.3,14.2,-000.1,0010.98,0007.12,0006.77
2023-01-21 21:04:00,,0825.2,5.00,0.00,21.7,20.0,00.0,30.6,23.3,14.2,-000.0,0011.41,0007.12,0006.78
2023-01-21 21:05:00,,0825.2,5.01,0.00,21.7,19.8,00.0,30.5,23.2,14.2,0000.0,0011.14,0007.12,0006.80
2023-01-21 21:06:00,,0825.2,5.00,0.00,21.6,19.6,00.0,30.5,23.2,14.2,0000.1,0011.19,0007.13,0006.80
2023-01-21 21:07:00,,0825.2,4.99,0.00,21.6,19.5,00.0,30.5,23.1,14.2,0000.1,0011.50,0007.16,0006.82
2023-01-21 21:08:00,,0825.2,5.01,0.00,21.5,19.4,00.0,30.5,23.0,14.3,0000.0,0011.34,0007.18,0006.83
2023-01-21 21:09:00,,0825.2,5.01,0.00,21.5,19.3,00.0,30.5,23.0,14.3,-000.8,0011.03,0007.18,0006.84
2023-01-21 21:10:00,,0825.2,5.01,0.00,21.4,19.2,00.0,30.4,22.9,14.3,-000.3,0011.07,0007.17,0006.83
2023-01-21 21:11:00,,0825.2,4.98,0.00,21.4,19.1,00.0,30.4,22.8,14.4,-000.6,0011.01,0007.16,0006.83
2023-01-21 21:12:00,,0825.2,5.00,0.00,21.3,19.0,00.0,30.4,22.8,14.5,-000.3,0011.07,0007.14,0006.79
2023-01-21 21:13:00,,0825.2,5.02,0.00,21.4,20.2,00.0,30.3,23.0,14.6,0000.0,0011.12,0007.11,0006.77
2023-01-21 21:14:00,,0825.2,5.00,0.00,21.5,21.7,00.0,30.3,23.4,14.6,-000.2,0011.24,0007.09,0006.75
2023-01-21 21:15:00,,0825.2,4.99,0.00,21.6,22.5,00.0,30.3,23.7,14.5,-000.8,0010.69,0007.09,0006.72
2023-01-21 21:16:00,,0825.2,4.99,0.00,21.7,22.0,00.0,30.4,23.7,14.4,0000.0,0010.71,0007.09,0006.70
2023-01-21 21:17:00,,0825.2,5.01,0.00,21.7,21.4,00.0,30.4,23.6,14.3,0000.0,0010.71,0007.06,0006.67
2023-01-21 21:18:00,,0825.2,5.00,0.00,21.7,20.9,00.0,30.4,23.5,14.3,0000.0,0010.58,0007.03,0006.62
2023-01-21 21:19:00,,0825.2,5.00,0.00,21.7,20.6,00.0,30.5,23.4,14.3,0000.0,0011.30,0007.03,0006.58
2023-01-21 21:20:00,,0825.2,5.01,0.00,21.7,20.3,00.0,30.5,23.3,14.3,0000.0,0011.26,0007.01,0006.56
2023-01-21 21:21:00,,0825.2,4.99,0.00,21.7,20.1,00.0,30.5,23.3,14.3,0000.0,0011.19,0006.98,0006.53
2023-01-21 21:22:00,,0825.2,5.00,0.00,21.7,19.9,00.0,30.5,23.2,14.2,0000.0,0011.27,0006.96,0006.50
2023-01-21 21:23:00,,0825.2,5.01,0.00,21.6,19.8,00.0,30.5,23.2,14.0,0000.0,0011.10,0006.90,0006.47
2023-01-21 21:24:00,,0825.2,5.01,0.00,21.6,19.7,00.0,30.4,23.1,14.0,0000.0,0010.92,0006.86,0006.43
2023-01-21 21:25:00,,0825.3,5.00,0.00,21.5,19.6,00.0,30.4,23.1,14.0,0000.0,0010.52,0006.76,0006.36
2023-01-21 21:26:00,,0825.3,4.99,0.00,21.5,19.5,00.0,30.4,23.1,13.9,0000.0,0010.08,0006.68,0006.30
2023-01-21 21:27:00,,0825.3,5.00,0.00,21.5,19.5,00.0,30.4,23.0,13.9,0000.0,0009.91,0006.58,0006.23
2023-01-21 21:28:00,,0825.3,5.00,0.00,21.5,19.5,00.0,30.4,23.0,14.0,0000.0,0009.83,0006.50,0006.16
2023-01-21 21:29:00,,0825.3,4.99,0.00,21.5,19.5,00.0,30.4,23.0,14.1,0000.0,0009.78,0006.44,0006.11
2023-01-21 21:30:00,,0825.3,4.99,0.00,21.4,19.5,00.0,30.3,23.0,14.0,0000.0,0009.16,0006.36,0006.04
2023-01-21 21:31:00,,0825.3,5.03,0.00,21.4,19.5,00.0,30.3,23.0,13.9,0000.0,0008.89,0006.27,0005.97
2023-01-21 21:32:00,,0825.3,5.00,0.00,21.4,19.5,00.0,30.3,23.0,13.9,0000.0,0008.85,0006.21,0005.90
2023-01-21 21:33:00,,0825.3,4.99,0.00,21.4,19.6,00.0,30.3,23.0,13.9,0000.0,0008.68,0006.13,0005.83
2023-01-21 21:34:00,,0825.3,5.00,0.00,21.4,19.6,00.0,30.3,23.0,13.9,0000.0,0008.59,0006.07,0005.77
2023-01-21 21:35:00,,0825.3,5.00,0.00,21.4,19.6,00.0,30.3,23.0,14.0,0000.0,0008.61,0006.03,0005.72
2023-01-21 21:36:00,,0825.3,4.99,0.00,21.4,20.0,00.0,30.3,23.1,14.3,0000.0,0008.54,0006.00,0005.70
2023-01-21 21:37:00,,0825.3,5.00,0.00,21.5,21.3,00.0,30.2,23.4,14.2,0000.0,0008.48,0005.97,0005.68
2023-01-21 21:38:00,,0825.3,5.00,0.00,21.6,22.2,00.0,30.3,23.7,14.1,0000.0,0008.45,0005.95,0005.65
2023-01-21 21:39:00,,0825.3,5.00,0.00,21.7,21.9,00.0,30.3,23.7,14.0,0000.0,0008.41,0005.93,0005.64
2023-01-21 21:40:00,,0825.3,5.00,0.00,21.8,21.6,00.0,30.4,23.7,14.0,0000.0,0008.35,0005.89,0005.60
2023-01-21 21:41:00,,0825.3,5.02,0.00,21.8,21.2,00.0,30.4,23.6,13.8,0000.0,0008.12,0005.83,0005.58
2023-01-21 21:42:00,,0825.3,5.00,0.00,21.8,20.9,00.0,30.4,23.6,13.7,0000.0,0008.09,0005.81,0005.57
2023-01-21 21:43:00,,0825.3,5.00,0.00,21.8,20.7,00.0,30.4,23.5,13.8,0000.0,0008.08,0005.81,0005.57
2023-01-21 21:44:00,,0825.4,4.99,0.00,21.8,20.6,00.0,30.5,23.5,13.8,0000.0,0008.08,0005.83,0005.57
2023-01-21 21:45:00,,0825.4,5.01,0.00,21.8,20.6,00.0,30.5,23.5,13.7,0000.0,0008.07,0005.81,0005.56
2023-01-21 21:46:00,,0825.3,5.00,0.00,21.8,20.6,00.0,30.5,23.6,13.8,0000.0,0007.99,0005.78,0005.54
2023-01-21 21:47:00,,0825.3,5.00,0.00,21.8,20.6,00.0,30.5,23.6,13.7,0000.0,0008.08,0005.77,0005.52
2023-01-21 21:48:00,,0825.3,5.01,0.00,21.8,20.6,00.0,30.5,23.6,13.8,0000.0,0008.18,0005.80,0005.52
2023-01-21 21:49:00,,0825.3,5.00,0.00,21.8,20.6,00.0,30.5,23.6,13.9,0000.0,0008.15,0005.79,0005.52
2023-01-21 21:50:00,,0825.3,4.98,0.00,21.9,20.7,00.0,30.5,23.6,14.0,0000.0,0008.14,0005.79,0005.52
2023-01-21 21:51:00,,0825.3,5.00,0.00,21.9,20.7,00.0,30.6,23.7,14.0,0000.0,0008.10,0005.79,0005.53
2023-01-21 21:52:00,,0825.3,4.99,0.00,21.9,20.7,00.0,30.6,23.7,13.9,0000.0,0008.15,0005.82,0005.54
2023-01-21 21:53:00,,0825.4,5.00,0.00,21.9,20.8,00.0,30.6,23.7,13.8,0000.0,0008.21,0005.84,0005.54
2023-01-21 21:54:00,,0825.3,4.99,0.00,21.9,20.8,00.0,30.6,23.7,13.8,0000.0,0008.25,0005.86,0005.56
2023-01-21 21:55:00,,0825.3,4.99,0.00,21.9,20.8,00.0,30.6,23.7,13.9,0000.0,0008.23,0005.86,0005.59
2023-01-21 21:56:00,,0825.4,5.01,0.00,21.9,20.8,00.0,30.6,23.8,13.8,0000.0,0008.24,0005.88,0005.62
2023-01-21 21:57:00,,0825.3,5.01,0.00,22.0,20.8,00.0,30.6,23.8,13.7,0000.0,0008.24,0005.90,0005.64
2023-01-21 21:58:00,,0825.3,5.01,0.00,22.0,20.8,00.0,30.6,23.8,13.7,0000.0,0008.18,0005.91,0005.66
2023-01-21 21:59:00,,0825.3,4.99,0.00,22.0,20.8,00.0,30.7,23.8,13.8,0000.0,0008.22,0005.92,0005.68
